YUBILEINY (RS-30)

Last updated on Wed Sep 17 2025 00:03:09 GMT+0000 (Coordinated Universal Time)

1 32953U 08025A 25259.63255487 .00000002 00000+0 -59171-4 0 9999 2 32953 82.5070 165.5942 0018584 186.4421 173.6423 12.43168104785703
UTC large
Height (km)
Speed (km/s)
/
Latitude / Longitude
Inclination (degrees)
Orbital Period (minutes)
Azimuth
Elevation
Range (km)
Doppler Factor

Next 0 passes for location: London (51.5072 / 0.1276)

Sorry there are no passes over London.